Location: Unspecified
(0.0000°N, 0.0000°E)
Time: 18:15:55
(UTC+02:00)

Meteor PRIRODA - Visible Passes

Search period start: 01 October 2014 00:00
Search period end: 11 October 2014 00:00
Orbit: 511 x 532 km, 97.3° (Epoch: 01 October)

Date Brightness Start Highest point End Pass type
(mag) Time Alt. Az. Time Alt. Az. Time Alt. Az.
01 Oct 4.8 06:27:18 10° NNE 06:30:55 46° E 06:34:32 10° S visible
02 Oct 5.8 06:14:38 10° NE 06:17:54 28° E 06:21:08 10° SSE visible
03 Oct 6.6 06:02:17 10° ENE 06:04:52 18° E 06:07:26 10° SE visible
04 Oct 7.1 05:50:43 10° E 05:51:50 11° ESE 05:52:57 10° ESE visible
05 Oct 4.4 07:09:20 10° NNW 07:12:42 32° W 07:16:04 10° SW visible
06 Oct 3.7 06:55:59 10° N 06:59:38 53° W 07:03:18 10° SSW visible
07 Oct 3.6 06:42:49 10° NNE 06:46:34 89° ESE 06:50:19 10° S visible
08 Oct 4.5 06:29:50 10° NNE 06:33:29 52° E 06:37:08 10° S visible
09 Oct 5.6 06:17:03 10° NE 06:20:24 31° E 06:23:44 10° SSE visible
10 Oct 6.4 06:04:33 10° NE 06:07:18 20° E 06:10:03 10° SSE visible
